{"data":{"norad_id":61004,"intl_designator":"2024-158Q","name":"STARLINK-32336","alt_names":[],"object_type":"PAYLOAD","status":"ACTIVE","operator":null,"country":"US","launch_date":"2024-09-05","launch_site_code":"AFETR","launch_vehicle":null,"mission":null,"orbit_class":"UNKNOWN","rcs_meters":null,"size_class":null,"mass_kg":null,"dimensions":null,"purposes":["comms"],"wikipedia_slug":null,"has_3d_model":false,"image_url":null,"decayed_at":null,"tle_current":{"epoch":"2026-05-25T04:32:20.688576Z","epoch_age_seconds":55396,"freshness":"FRESH","line1":"1 61004U 24158Q   26145.18912834  .00000364  00000+0  24407-4 0  9998","line2":"2 61004  53.1614  70.2001 0001336  94.3606 265.7547 15.30194466 97364","mean_motion":15.30194466,"eccentricity":0.0001336,"inclination_deg":53.1614,"raan_deg":70.2001,"arg_perigee_deg":94.3606,"mean_anomaly_deg":265.7547,"bstar":2.4407e-5,"rev_number":9736,"period_min":94.105686041607,"perigee_km":474.31598295159,"apogee_km":476.14720303964,"semimajor_km":6853.3685929956,"source":"CELESTRAK","updated_at":"2026-05-25T13:38:19.349753Z"}}}